Back to catalog

SL-14 DEB

AlivePO
NORAD 45327·DEBRIS·🇷🇺 Russia

Launched Aug 15, 1991 from Plesetsk Cosmodrome

Loading…

Next Passes (next 24 hours)

TLE

FreshSource: Space-Track

Epoch: Sep 14, 2026, 14:00 UTC

1 45327U 91056BR  26257.58379294  .00001194  00000-0  21050-2 0  9996
2 45327  82.5656  16.7127 0073809 344.9859  14.9085 13.41005410321516

Track SL-14 DEB in real time with AllMySat

Download on the App Store